SCP
0 0 0 0 0 0 0 0 0 0 0 0 0 0 0 0 0 0 1 1 1 1 1 0 0 0 0 0 0 0 0 0 0 0 0 0 0 0 0 0 0 1 1 1
0 0 0 0 0 0 0 0 0 0 0 0 0 0 0 0 0 0 1 1 1 1 1 0 0 0 0 0 0 0 0 0 0 0 0 0 0 1 1 1 1 1 1 1
0 0 0 0 0 0 0 0 0 0 0 0 0 0 1 1 1 1 1 1 1 1 1 0 0 0 0 0 0 0 0 0 0 0 0 1 1 1 1 1 1 1 1 1
0 0 0 0 0 0 0 0 0 0 0 0 0 1 1 1 1 1 1 1 1 1 1 1 0 0 0 0 0 0 0 0 1 1 1 1 1 1 1 1 1 1 1 1
0 0 0 0 0 0 0 0 0 0 0 1 1 1 1 1 1 1 1 1 1 1 1 1 1 1 1 1 1 1 1 1 1 1 1 1 1 1 1 1 1 1 1 1
0 0 0 0 0 0 0 0 0 0 1 1 1 1 1 1 1 1 1 1 1 1 1 1 1 1 1 1 1 1 1 1 1 1 1 1 1 1 1 1 1 1 1 1
0 0 0 0 0 0 0 0 0 1 1 1 1 1 1 1 1 1 1 1 1 1 1 1 1 1 1 1 1 1 1 1 1 1 1 1 1 1 1 1 1 1 1 1
0 0 0 0 0 0 0 0 0 1 1 1 1 1 1 1 1 0 0 0 0 0 0 1 1 1 1 1 1 1 1 1 1 1 0 1 1 1 1 1 1 1 1 1
0 0 0 0 0 0 0 0 0 0 0 0 0 0 0 0 0 0 0 0 0 0 0 0 0 1 1 1 1 0 0 0 0 0 0 0 0 0 0 1 0 0 0 0
0 0 0 0 0 0 0 0 0 0 0 0 0 0 0 0 0 0 0 0 0 0 0 0 0 0 0 0 0 0 0 0 0 0 0 0 0 0 0 0 0 0 0 0
0 0 0 0 0 0 0 0 0 0 0 0 0 0 0 0 0 0 0 0 0 0 0 0 0 0 0 0 0 0 0 0 0 0 0 0 0 0 0 0 0 0 0 0
0 0 0 0 0 0 0 0 0 0 0 0 0 0 0 0 0 0 0 0 0 0 0 0 0 0 0 0 0 0 0 0 0 0 0 0 0 0 0 0 0 0 0 0
0 0 0 0 0 0 0 0 0 0 0 0 0 0 0 0 0 0 0 0 0 0 0 0 0 0 0 0 0 0 0 0 0 0 0 0 0 0 0 0 0 0 0 0
0 0 0 0 0 0 0 0 0 0 0 0 0 0 0 0 0 0 0 0 0 0 0 0 0 0 0 0 0 0 0 0 0 0 0 0 0 0 0 0 0 0 0 0
0 0 0 0 0 0 0 0 0 0 0 0 0 0 0 0 0 0 0 0 0 0 0 0 0 0 0 0 0 0 0 0 0 0 0 0 0 0 0 0 0 0 0 0
0 0 0 0 0 0 0 0 0 0 0 0 0 0 0 0 0 0 0 0 0 0 0 0 0 0 0 0 0 0 0 0 0 0 0 0 0 0 0 0 0 0 0 0
0 0 0 0 0 0 0 0 0 0 0 0 0 0 0 0 0 0 0 0 0 0 0 0 0 0 0 0 0 0 0 0 0 0 0 0 0 0 0 0 0 0 0 0
0 0 0 0 0 0 0 0 0 0 0 0 0 0 0 0 0 0 0 0 0 0 0 0 0 0 0 0 0 0 0 0 0 0 0 0 0 0 0 0 0 0 0 0
0 0 0 0 0 0 0 0 0 0 0 0 0 0 0 0 0 0 0 0 0 0 0 0 0 0 0 0 0 0 0 0 0 0 0 0 0 0 0 0 0 0 0 0
0 0 0 0 0 0 0 0 0 0 0 0 0 0 0 0 0 0 0 0 0 0 0 0 0 0 0 0 0 0 0 0 0 0 0 0 0 0 0 0 0 0 0 0
0 0 0 0 0 0 0 0 0 0 0 0 0 0 0 0 0 0 0 0 0 0 0 0 0 0 0 0 0 0 0 0 0 0 0 0 0 0 0 0 0 0 0 0
0 0 0 0 0 0 0 0 0 0 0 0 0 0 0 0 0 0 0 0 0 0 0 0 0 0 0 0 0 0 0 0 0 0 0 0 0 0 0 0 0 0 0 0
0 0 0 0 0 0 0 0 0 0 0 0 0 0 0 0 0 0 0 0 0 0 0 0 0 0 0 0 0 0 0 0 0 0 0 0 0 0 0 0 0 0 0 0
0 0 0 0 0 0 0 0 0 0 0 0 0 0 0 0 0 0 0 0 0 0 0 0 0 0 0 0 0 0 0 0 0 0 0 0 0 0 0 0 0 0 0 0
0 0 0 0 0 0 0 0 0 0 0 0 0 0 0 0 0 0 0 0 0 0 0 0 0 0 0 0 0 0 0 0 0 0 0 0 0 0 0 0 0 0 0 0
0 0 0 0 0 0 0 0 0 0 0 0 0 0 0 0 0 0 0 0 0 0 0 0 0 0 0 0 0 0 0 0 0 0 0 0 0 0 0 0 0 0 0 0
0 0 0 0 0 0 0 0 0 0 0 0 0 0 0 0 0 0 0 0 0 0 0 0 0 0 0 0 0 0 0 0 0 0 0 0 0 0 0 0 0 0 0 0
Wind_Speed
11 9 9 11 12 12 14 14 15 12 10 6 3 3 4 6 8 9 10 11 11 11 10 10 10 10 10 11 11 11 12 12 12 11 10 10 10 9 9 9 9 9 9 9
11 11 12 14 14 15 15 15 16 15 13 4 1 3 5 6 8 9 9 9 10 10 10 9 9 9 9 9 10 10 11 11 10 10 10 10 9 9 9 9 9 9 9 9
12 11 12 15 15 16 16 15 15 16 11 5 5 5 5 6 7 8 8 8 8 8 8 8 8 7 8 8 9 9 10 9 9 10 9 9 9 9 9 9 8 8 8 8
10 9 15 9 5 9 12 13 13 11 7 5 3 3 4 4 6 6 7 7 6 6 6 6 6 7 7 7 8 8 8 8 8 8 8 8 8 8 8 7 7 7 7 7
8 12 12 8 4 6 10 12 9 9 5 4 6 7 5 5 5 6 6 5 5 5 6 6 6 6 7 7 7 6 6 6 5 6 6 7 7 6 6 5 5 5 5 5
9 11 11 3 3 5 8 11 3 4 4 6 9 7 6 7 7 8 8 7 6 6 7 7 6 7 8 7 7 6 5 4 4 4 4 4 4 4 4 4 4 4 4 3
11 11 8 3 5 4 9 3 4 3 4 7 6 2 11 10 10 9 9 9 9 9 8 8 8 9 10 9 8 6 6 6 6 5 5 4 3 3 4 4 4 3 3 2
7 9 6 5 5 4 6 8 6 3 2 4 8 13 13 12 11 11 11 11 11 10 10 9 9 10 11 10 8 9 9 9 8 7 5 5 5 4 4 4 4 4 3 3
4 4 4 6 6 7 7 7 4 1 4 9 12 13 14 13 12 11 11 11 11 12 12 11 10 10 11 10 9 10 10 10 9 9 8 7 6 6 5 4 3 3 3 3
6 6 5 6 7 6 5 3 1 5 8 10 13 15 15 13 12 11 11 10 11 12 13 12 11 11 11 10 9 10 11 10 9 9 9 9 6 6 5 5 4 3 3 3
7 7 6 5 4 3 3 4 6 8 10 12 16 16 15 13 12 11 10 10 11 11 13 13 12 12 11 9 9 10 10 9 9 9 9 9 9 9 8 9 8 5 5 4
6 5 4 3 3 3 4 6 8 12 13 13 15 16 15 13 11 11 11 11 12 12 13 12 12 11 10 9 9 9 8 8 7 6 6 6 7 9 13 10 11 12 11 8
5 3 1 3 4 4 6 9 11 13 14 15 15 15 15 13 12 12 12 12 12 12 12 12 12 11 10 9 9 9 9 7 6 6 5 5 5 5 6 7 9 10 10 10
1 2 4 5 6 7 10 13 15 15 15 15 14 14 14 14 13 13 12 11 11 12 12 12 12 11 9 9 9 8 8 7 6 5 4 4 4 4 3 3 4 5 8 8
2 4 7 9 10 11 12 15 16 15 15 14 13 14 14 14 13 12 11 11 11 11 11 11 11 10 9 9 9 8 7 6 5 5 4 5 4 3 3 4 3 3 4 5
7 9 11 11 12 13 14 15 16 15 14 14 13 13 13 13 12 11 10 9 10 11 10 10 10 9 8 7 7 6 7 7 5 4 4 4 4 4 3 3 3 4 4 5
8 10 12 13 13 13 13 13 14 14 14 14 13 13 13 13 12 11 10 10 10 10 9 9 8 7 6 6 5 4 5 5 2 3 5 5 4 4 4 3 4 4 5 7
8 9 11 13 13 13 14 14 14 14 14 14 13 12 12 11 11 10 10 10 10 9 8 8 7 6 6 6 4 3 3 3 4 5 4 5 4 4 4 4 4 4 4 4
11 12 12 13 13 13 13 13 13 13 13 12 12 11 11 10 10 9 8 8 8 8 7 7 4 5 6 5 3 2 3 3 3 4 4 3 2 4 4 4 4 4 4 4
13 13 14 13 13 13 13 12 12 12 11 11 12 11 10 10 9 8 8 7 7 6 6 5 4 5 5 4 5 2 3 3 3 3 3 3 4 4 4 4 4 4 4 4
14 14 14 13 13 12 12 11 11 11 11 10 10 10 10 9 8 7 6 8 7 6 5 3 4 4 5 3 2 3 4 4 4 4 4 4 4 4 4 4 4 4 4 5
12 12 13 13 12 11 10 9 10 11 10 9 9 9 9 8 8 7 7 6 6 3 2 4 6 7 6 5 3 5 5 5 4 4 4 5 4 4 5 5 4 4 5 5
10 11 12 12 11 11 10 9 9 9 9 8 8 7 6 5 4 4 6 5 5 3 3 7 7 5 6 3 5 5 5 5 5 4 5 4 5 5 5 5 5 5 5 5
10 10 10 10 10 11 10 9 9 8 8 8 7 6 5 5 5 5 7 7 6 4 6 8 5 3 3 3 5 5 5 5 4 5 5 4 4 4 5 5 5 5 5 6
10 10 10 9 9 9 9 9 9 8 7 6 7 6 5 4 5 5 6 7 6 4 7 8 4 1 2 5 5 5 5 6 6 4 4 4 4 5 5 5 5 5 5 5
9 8 7 7 7 6 5 5 5 5 5 5 5 5 5 5 6 5 5 7 8 5 5 5 5 2 4 5 5 5 5 4 3 3 5 4 5 5 5 5 5 4 4 5
9 7 6 6 6 5 4 4 4 4 4 4 5 4 4 5 5 5 5 5 5 5 4 4 4 4 4 4 4 4 3 3 3 3 3 4 4 3 3 3 3 4 4 4
Wind_Direction
271 281 270 261 251 240 243 254 264 269 265 260 215 192 176 167 166 165 162 163 166 166 165 168 171 176 181 183 184 183 184 189 191 192 194 197 198 198 197 200 204 206 210 214
261 259 261 259 254 249 247 251 255 262 263 266 209 167 167 169 169 168 165 162 162 162 159 164 169 175 177 181 182 182 187 192 191 191 192 197 199 199 200 203 209 210 214 216
260 258 263 252 248 249 250 250 253 255 257 220 202 187 174 167 168 165 158 154 156 158 159 161 168 173 178 179 178 182 188 191 190 191 192 196 200 199 202 203 205 211 215 218
262 255 248 254 270 268 263 258 256 260 255 222 189 128 124 150 153 147 142 140 141 145 146 150 155 162 166 165 169 176 182 186 188 190 190 191 196 199 201 203 203 207 212 215
251 249 254 253 265 277 269 262 262 258 234 192 142 136 127 116 122 123 118 115 116 124 127 126 133 142 145 146 148 153 160 166 174 184 187 189 193 197 199 200 200 203 206 209
243 254 255 270 353 312 275 254 258 255 205 184 181 201 140 119 110 105 101 99 102 105 107 108 110 118 122 121 124 128 132 136 139 148 155 169 178 182 177 179 185 190 189 196
243 249 256 358 353 296 247 295 5 289 210 199 212 90 114 117 108 102 98 95 94 93 91 92 100 105 105 102 101 104 105 104 101 104 109 112 121 137 150 155 152 153 145 138
239 243 245 14 329 300 329 336 318 290 204 147 106 110 117 114 109 103 97 94 94 91 87 86 94 100 97 93 94 97 96 92 86 81 82 92 100 101 109 123 130 129 127 116
269 282 344 339 319 317 311 303 299 245 127 124 123 123 118 112 105 98 94 93 93 93 87 78 77 87 90 89 93 94 91 88 84 79 74 73 82 91 98 101 102 108 112 109
258 264 294 315 315 306 297 298 90 119 122 124 124 120 115 108 102 98 93 91 92 92 89 81 75 75 80 86 91 91 89 87 85 80 74 65 55 58 59 58 66 72 77 80
254 269 284 303 326 345 42 82 104 113 116 119 120 117 113 108 103 99 95 90 87 88 88 86 81 78 78 80 85 88 86 84 82 79 77 71 64 49 52 51 41 40 47 51
275 291 282 309 21 65 94 105 115 118 114 114 117 116 112 106 103 101 97 93 90 88 87 87 84 80 76 76 79 85 88 83 81 82 83 86 89 82 59 65 68 63 52 49
281 298 8 73 73 84 105 110 111 114 115 114 111 111 109 107 104 99 94 91 90 90 89 86 82 76 72 73 76 77 78 75 75 74 78 80 86 94 101 94 86 79 74 67
298 150 112 96 97 101 106 108 105 105 107 108 110 109 107 105 101 96 94 95 96 94 91 88 83 76 74 76 77 78 80 78 72 74 71 70 69 70 71 78 103 105 102 95
63 108 116 112 108 106 109 112 108 107 108 107 107 107 108 106 104 102 103 105 103 97 92 88 83 76 71 73 73 69 66 65 61 63 64 62 57 58 59 55 53 58 76 103
102 108 113 113 113 115 115 114 112 112 113 111 110 110 109 109 106 104 104 104 99 92 88 84 79 73 70 72 76 79 74 55 39 56 62 60 52 46 48 49 48 45 44 39
123 125 124 121 119 115 113 113 115 118 116 114 114 115 114 111 108 105 101 95 92 89 86 83 79 75 70 63 55 67 80 88 77 54 55 48 44 40 38 35 40 44 51 53
115 120 123 121 120 119 119 119 119 119 118 119 119 117 116 115 112 109 107 106 101 93 83 79 76 78 73 60 40 37 56 59 53 53 54 44 30 31 32 37 44 48 48 68
114 115 116 118 119 119 117 117 117 116 118 120 119 117 116 113 112 112 112 110 107 99 84 78 70 79 76 56 4 59 46 54 61 60 61 69 38 41 39 38 39 35 32 30
115 115 116 116 114 113 114 116 116 116 118 119 118 116 114 112 113 114 111 97 78 78 84 72 78 68 68 51 331 41 53 47 50 56 50 44 43 41 40 37 32 29 25 22
115 116 115 113 110 110 112 115 116 117 118 118 118 117 115 114 115 117 118 105 90 78 87 90 66 57 50 24 313 42 51 46 46 47 42 39 38 35 33 29 27 27 23 20
107 109 111 111 110 109 111 114 116 117 116 115 114 114 116 117 115 106 89 88 100 74 81 80 67 52 17 330 46 55 55 50 47 46 44 37 34 33 33 29 27 25 24 22
105 108 110 110 110 109 107 106 107 108 109 109 108 108 107 103 112 118 110 96 99 79 66 67 64 44 340 6 56 61 59 55 51 51 53 47 40 36 34 30 28 28 26 21
102 104 106 109 111 108 105 101 100 101 105 106 106 109 117 120 105 89 92 97 84 83 82 83 75 37 336 57 62 62 63 59 56 53 52 52 49 43 41 37 32 29 28 23
106 107 109 113 112 108 110 113 111 113 112 106 106 103 95 90 96 97 101 107 113 120 108 105 99 27 63 71 70 66 62 51 40 39 57 48 46 50 47 41 34 29 24 19
104 99 95 91 91 103 114 119 120 117 114 111 105 102 102 103 107 111 115 120 120 115 105 112 115 122 84 81 76 71 76 93 88 63 55 50 50 48 45 36 32 25 20 20
107 105 105 104 102 100 102 104 107 106 105 110 113 114 115 115 114 113 116 117 121 117 107 104 101 93 87 86 86 83 78 74 69 64 64 58 54 51 50 39 28 22 11 22